CDT,Max TemperatureF,Mean TemperatureF,Min TemperatureF,Max Dew PointF,MeanDew PointF,Min DewpointF,Max Humidity, Mean Humidity, Min Humidity, Max Sea Level PressureIn, Mean Sea Level PressureIn, Min Sea Level PressureIn, Max VisibilityMiles, Mean VisibilityMiles, Min VisibilityMiles, Max Wind SpeedMPH, Mean Wind SpeedMPH, Max Gust SpeedMPH,PrecipitationIn, CloudCover, Events, WindDirDegrees
2012-8-1,99,88,77,67,65,61,68,47,28,29.89,29.84,29.77,10,10,10,14,6,18,0.00,1,,87
2012-8-2,95,84,75,71,68,64,83,63,39,29.85,29.77,29.72,10,10,10,15,6,23,0.01,3,Rain-Thunderstorm,29
2012-8-3,97,83,70,71,68,65,99,60,36,29.81,29.77,29.75,10,10,10,10,2,,0.00,2,,87
2012-8-4,92,84,78,73,70,67,78,61,45,30.00,29.81,29.74,10,10,6,15,7,21,0.00,5,Rain-Thunderstorm,334
2012-8-5,91,80,69,68,59,51,84,53,26,30.17,30.10,30.01,10,10,10,15,8,22,0.00,2,,6
2012-8-6,96,76,58,59,53,46,94,47,18,30.14,30.07,29.98,10,10,10,15,4,20,0.00,0,,35
2012-8-7,103,82,63,59,52,48,69,37,15,29.99,29.94,29.88,10,10,10,9,3,,0.00,0,,145
2012-8-8,97,82,67,69,63,56,100,59,34,29.99,29.92,29.82,10,10,4,22,8,39,0.32,4,Rain-Thunderstorm,129
2012-8-9,90,77,65,69,65,63,100,72,44,29.94,29.90,29.86,10,10,8,18,8,26,0.00,1,,357
2012-8-10,82,71,61,62,57,51,93,65,36,30.04,29.99,29.93,10,10,10,16,8,23,0.00,1,,14
2012-8-11,87,72,56,58,53,49,99,57,26,30.08,30.02,29.94,10,10,10,6,1,,0.00,0,,83
2012-8-12,92,78,65,64,61,52,90,63,33,29.98,29.90,29.76,10,10,6,15,5,22,0.07,5,Rain-Thunderstorm,162
2012-8-13,76,68,60,63,61,58,93,76,56,30.03,29.95,29.86,10,10,10,18,11,26,0.00,6,,338
2012-8-14,72,64,56,62,59,55,99,83,63,30.08,30.02,29.96,10,10,10,13,4,,0.00,3,Rain,241
2012-8-15,95,75,55,65,60,55,100,65,33,29.96,29.89,29.79,10,10,9,14,5,22,0.00,0,,170
2012-8-16,86,74,64,70,61,54,74,59,42,30.04,29.91,29.83,10,10,10,20,11,25,0.00,4,Rain-Thunderstorm,314
2012-8-17,83,68,54,55,47,40,89,49,22,30.10,30.04,29.98,10,10,10,10,6,21,0.00,1,,11
2012-8-18,85,68,51,50,43,35,76,42,17,30.02,29.95,29.88,10,10,10,14,2,,0.00,2,Rain,56
2012-8-19,83,71,60,54,48,42,72,47,27,30.01,29.97,29.92,10,10,10,16,8,23,0.00,3,Rain,14
2012-8-20,87,70,53,50,47,44,80,47,23,30.04,29.99,29.94,10,10,10,12,2,17,0.00,0,,308
2012-8-21,94,77,60,50,46,42,65,37,17,30.04,30.00,29.96,10,10,10,13,5,20,0.00,1,,263
2012-8-22,97,80,62,54,48,44,59,37,16,30.06,30.00,29.96,10,10,10,16,6,25,0.00,1,,200
2012-8-23,95,79,63,53,50,47,65,38,20,30.06,30.00,29.93,10,10,10,21,9,30,0.00,0,,190
2012-8-24,90,79,69,55,53,50,55,39,28,30.01,29.94,29.88,10,10,10,15,9,20,0.00,2,,175
2012-8-25,86,78,72,74,65,53,95,64,40,29.92,29.89,29.87,10,10,7,16,9,21,0.00,5,Rain,155
2012-8-26,81,74,69,76,73,70,100,95,74,30.01,29.94,29.88,10,9,2,21,12,32,0.43,7,Rain,200
2012-8-27,91,78,66,72,66,56,100,86,31,30.14,30.07,30.01,10,5,0,12,6,,0.01,1,Fog,21
2012-8-28,95,78,61,65,59,55,99,56,26,30.15,30.07,29.98,10,10,10,8,2,,0.00,0,,70
2012-8-29,96,80,64,68,59,54,99,52,25,30.04,29.98,29.90,10,10,10,9,4,,0.00,0,,136
2012-8-30,99,84,68,63,55,47,75,42,17,29.99,29.93,29.87,10,10,10,12,6,,0.00,0,,126
2012-8-31,77,74,71,75,73,62,100,97,62,29.95,29.81,29.74,10,4,1,24,12,36,2.27,8,Rain,67